EW2485 Weather Reports


Display with metric or nautical units.
time (UTC)temp
F
wind
direction
speed
MPH
gust
MPH
rain 1hr
in
rain 24hr
in
rain mn
in
humidity
%
barometer
mb
20260506171525 45 329 8.0 14.0 0.01 0.47 0.36 87 1006.9
20260506170112 45 316 4.0 9.0 0.01 0.47 0.36 87 1007.1
20260506164540 46 281 4.0 8.0 0.00 0.46 0.35 87 1007.0
20260506163027 45 296 3.0 10.0 0.00 0.46 0.35 87 1007.0
20260506160026 45 260 3.0 7.0 0.01 0.46 0.35 87 1006.8
20260506154546 44 314 5.0 8.0 0.01 0.46 0.35 86 1006.8
20260506153013 45 306 2.0 5.0 0.01 0.46 0.35 87 1006.8
20260506151542 44 122 1.0 4.0 0.00 0.45 0.34 87 1006.8
20260506150015 44 317 2.0 5.0 0.01 0.45 0.34 87 1006.8
20260506144606 44 316 3.0 11.0 0.02 0.45 0.34 86 1006.6
20260506143035 44 320 3.0 7.0 0.03 0.45 0.34 86 1006.2
20260506141551 44 309 3.0 7.0 0.05 0.45 0.34 86 1006.3
20260506140007 44 299 3.0 6.0 0.05 0.44 0.33 86 1006.4
20260506134533 44 340 3.0 13.0 0.09 0.43 0.32 86 1006.2
20260506133052 45 276 3.0 10.0 0.11 0.42 0.31 86 1006.3
20260506131518 46 241 2.0 7.0 0.11 0.40 0.28 86 1006.4
20260506130034 46 164 3.0 11.0 0.12 0.39 0.28 86 1006.3
20260506124551 46 269 4.0 13.0 0.08 0.34 0.23 85 1007.0
20260506123018 47 331 9.0 13.0 0.07 0.31 0.20 85 1006.4
20260506121553 48 1 1.0 6.0 0.07 0.28 0.18 86 1005.9
20260506120042 49 260 4.0 9.0 0.07 0.27 0.16 86 1005.9
20260506114520 49 237 3.0 5.0 0.07 0.26 0.15 87 1005.9
20260506113047 48 172 1.0 5.0 0.06 0.24 0.13 87 1005.9
20260506111504 47 152 0.0 3.0 0.05 0.22 0.11 86 1006.1
20260506110035 47 171 1.0 4.0 0.04 0.22 0.09 86 1006.1
20260506104556 47 107 1.0 3.0 0.05 0.21 0.08 86 1006.2
20260506103029 47 178 1.0 3.0 0.04 0.20 0.07 86 1006.3
20260506101547 47 79 2.0 4.0 0.04 0.19 0.06 86 1006.2
20260506100009 47 241 2.0 4.0 0.03 0.17 0.05 86 1006.5
20260506094533 47 213 1.0 6.0 0.02 0.16 0.03 86 1006.5
20260506093056 47 6 6.0 8.0 0.02 0.15 0.02 86 1006.3
20260506091548 47 274 3.0 22.0 0.02 0.15 0.02 85 1006.8
20260506090043 48 327 2.0 5.0 0.01 0.14 0.01 86 1006.6
20260506084616 47 223 2.0 6.0 0.01 0.14 0.01 86 1006.6
20260506083024 47 238 2.0 5.0 0.00 0.13 0.00 86 1006.4
20260506081544 46 241 2.0 4.0 0.00 0.13 0.00 86 1006.4
20260506073052 45 228 2.0 4.0 0.00 0.13 0.00 85 1006.7
20260506071600 45 219 1.0 3.0 0.00 0.13 0.00 85 1006.7
20260506061558 45 223 2.0 4.0 0.00 0.13 0.00 84 1008.0
20260506050111 46 303 1.0 4.0 0.00 0.13 0.00 83 1008.4
20260506044529 47 138 3.0 5.0 0.00 0.13 0.00 83 1008.6
20260506043044 48 193 1.0 4.0 0.00 0.13 0.00 83 1008.5
20260506041521 49 269 1.0 5.0 0.00 0.13 0.00 82 1008.4
20260506040035 50 203 2.0 5.0 0.00 0.13 0.13 81 1008.3
20260506034550 51 8 3.0 7.0 0.00 0.13 0.13 81 1008.4
20260506033005 51 46 2.0 6.0 0.00 0.13 0.13 81 1008.6
20260506031541 51 295 3.0 5.0 0.00 0.13 0.13 81 1008.9
20260506030052 51 324 4.0 6.0 0.00 0.13 0.13 81 1009.0
20260506024602 51 46 2.0 5.0 0.00 0.13 0.13 80 1008.9
20260506023026 52 323 4.0 12.0 0.00 0.13 0.13 80 1009.1
20260506021603 52 13 2.0 11.0 0.00 0.13 0.13 81 1009.1
20260506020035 52 13 3.0 6.0 0.00 0.13 0.13 81 1009.1
20260506014557 53 342 5.0 12.0 0.00 0.13 0.13 80 1008.5
20260506013027 53 354 9.0 13.0 0.00 0.13 0.13 80 1007.9
20260506011601 54 353 7.0 16.0 0.00 0.13 0.13 80 1008.0
20260506010007 54 1 12.0 18.0 0.00 0.13 0.13 79 1007.6
20260506004532 56 345 7.0 21.0 0.00 0.13 0.13 80 1007.7
20260506003049 57 6 17.0 33.0 0.00 0.13 0.13 79 1007.8
20260506001522 59 330 7.0 15.0 0.00 0.13 0.13 81 1007.5
20260506000045 60 283 4.0 13.0 0.00 0.13 0.13 80 1007.2
20260505234502 61 20 6.0 16.0 0.00 0.13 0.13 80 1006.7
20260505233031 61 329 7.0 17.0 0.00 0.13 0.13 80 1006.8
20260505231523 61 234 3.0 12.0 0.00 0.13 0.13 80 1006.5
20260505224541 63 223 6.0 19.0 0.00 0.13 0.13 79 1005.6
20260505223106 65 204 15.0 32.0 0.00 0.13 0.13 75 1005.7
20260505221525 67 277 4.0 9.0 0.00 0.13 0.13 74 1005.3
20260505220042 67 321 4.0 15.0 0.00 0.13 0.13 75 1005.0
20260505214619 66 209 5.0 15.0 0.00 0.13 0.13 77 1005.1
20260505213022 66 178 4.0 12.0 0.00 0.13 0.13 79 1005.0
20260505211538 65 151 4.0 13.0 0.00 0.13 0.13 80 1004.7
20260505210056 64 314 5.0 10.0 0.00 0.13 0.13 81 1004.9
20260505204520 63 193 4.0 9.0 0.02 0.13 0.13 83 1004.8
20260505203053 62 178 4.0 8.0 0.05 0.13 0.13 82 1005.0
20260505201534 61 188 3.0 5.0 0.10 0.13 0.13 83 1005.6
20260505200006 60 187 4.0 9.0 0.10 0.12 0.12 83 1005.9
20260505194536 60 178 4.0 11.0 0.09 0.11 0.11 82 1006.4
20260505193054 62 183 6.0 13.0 0.06 0.08 0.08 80 1006.3
20260505191508 64 216 3.0 7.0 0.00 0.02 0.02 77 1005.9
20260505190036 66 290 5.0 16.0 0.00 0.02 0.02 73 1005.6
20260505184552 70 264 6.0 18.0 0.00 0.02 0.02 64 1004.5
20260505183008 73 213 7.0 33.0 0.00 0.02 0.02 54 1004.0
20260505181532 74 169 9.0 21.0 0.00 0.02 0.02 52 1003.9
20260505180059 75 154 9.0 22.0 0.00 0.02 0.02 52 1004.0
20260505174555 74 165 4.0 21.0 0.00 0.02 0.02 55 1004.4
20260505173026 72 216 7.0 16.0 0.00 0.02 0.02 55 1004.8